Regional Weather Roundup
Issued by NWS Northern Indiana

Home | Current Version | Previous Version | Graphics & Text | Print | Product List | Glossary On
Versions: 1 2 3 4 5 6 7 8 9 10 11 12 13 14 15 16 17 18 19 20 21 22 23 24 25 26 27 28 29 30 31 32 33 34 35 36 37 38 39 40 41 42 43 44 45 46 47 48 49 50
000
ASUS43 KIWX 232211
RWRIWX

KIWX WEATHER ROUNDUP
NATIONAL WEATHER SERVICE NORTHERN INDIANA
600 PM EDT SAT SEP 23 2017

NOTE: "FAIR" INDICATES FEW OR NO CLOUDS BELOW 12,000 FEET WITH NO
SIGNIFICANT WEATHER AND/OR OBSTRUCTIONS TO VISIBILITY.

* THESE STATIONS ARE NOT UNDER NWS QUALITY CONTROL. THEY ALSO MAY NOT
  REPORT WEATHER SUCH AS PRECIPITATION OR FOG.

INZ001>027-232300-
NORTHERN INDIANA

CITY           SKY/WX    TMP DP  RH WIND       PRES   REMARKS
VALPARAISO     SUNNY     93  64  38 SE7       30.05S
MICHIGAN CITY* SUNNY     86  68  54 NE5       30.06S
LAPORTE*       SUNNY     91  62  37 E6        30.07S
KNOX*          SUNNY     90  64  43 SE3       30.05S
SOUTH BEND     SUNNY     90  62  39 E8        30.07S
ELKHART*       SUNNY     90  64  43 E8        30.07S
GOSHEN         SUNNY     89  62  40 E8        30.08R
MONTICELLO*    SUNNY     90  64  42 E3        30.04S
LOGANSPORT*    SUNNY     90  63  40 NE5       30.07R
WARSAW*        SUNNY     88  66  48 E7        30.08S
AUBURN*        SUNNY     88  61  40 E3        30.10S
FORT WAYNE     SUNNY     88  65  46 E6        30.08S
HUNTINGTON*    SUNNY     89  62  39 E5        30.07S
PERU/GRISSOM   SUNNY     89  65  43 E7        30.06S

$$
INZ028>050-232300-
CENTRAL INDIANA

CITY           SKY/WX    TMP DP  RH WIND       PRES   REMARKS
LAFAYETTE      SUNNY     89  66  46 NE7       30.03S
KOKOMO*        SUNNY     88  66  48 E7        30.08R
MUNCIE*        SUNNY     91  58  32 E10       30.07S
INDIANAPOLIS   MOSUNNY   90  61  37 SE9       30.05F

$$
MIZ043>046-050>051-056>058-064>065-071>073-077>080-232300-
SOUTHWEST LOWER MICHIGAN

CITY           SKY/WX    TMP DP  RH WIND       PRES   REMARKS
BATTLE CREEK   SUNNY     92  57  30 SE7       30.10R
BENTON HARBOR  SUNNY     87  65  47 NW3       30.06F
COLDWATER*     SUNNY     89  58  34 SE5       30.10S
HILLSDALE*     SUNNY     88  59  37 SE6       30.11S
HOLLAND        SUNNY     90  64  42 NW6       30.07S
GRAND RAPIDS   MOSUNNY   94  58  29 SE7       30.07S
KALAMAZOO      SUNNY     93  53  25 E5        30.08S
STURGIS*       SUNNY     90  61  37 E9        30.08S
THREE RIVERS*  FAIR      92  60  34 SE8       30.08S

$$
OHZ001>008-015>018-024>025-232300-
NORTHWEST OHIO

CITY           SKY/WX    TMP DP  RH WIND       PRES   REMARKS
WAUSEON*       FAIR      88  61  40 E8        30.10R
DEFIANCE       SUNNY     88  61  40 E9        30.09R
FINDLAY        SUNNY     89  61  38 E10       30.09S
TOLEDO EXPRESS SUNNY     88  64  44 E7        30.09S
TOLEDO METCALF SUNNY     85  62  46 E8        30.11S
LIMA           SUNNY     88  60  38 NE6       30.09S

$$
AND FOR LAKE MICHIGAN COASTAL AND OPEN LAKE BUOY OBSERVATIONS

STATION/POSITION TEMP    WIND        PRES    VSBY  WAVE
                 AIR SEA DIR/SP/G                  HT/PER
                 (F)     (DEG/KT/KT) (MB)    (MI)  (FT/S)
CALUMET HARBOR    79      50/  9/ 11 1016.7F
MICHIGAN CITY     77      50/ 12/ 13   N/A
BURNS HARBOR      78      70/  8/ 11 1017.9
SAINT JOSEPH      84      20/  5/  7 1019.0
SOUTH LAKE BUOY   76 73  170/  2/  2 1017.7F         0
4 MI NW BRIDGMAN  76 73   60/  6/  8 1017.6          0
MICHIGAN CITY     76 74   80/  8/ 10   N/A           1

$$
&&



USA.gov is the U.S. government's official web portal to all federal, state and local government web resources and services.